Home > Time Zones > World Clock > Weather > Oman > Seeb > Past weeks

Flag for Oman Weather past 2 weeks in Seeb, Oman

Now
99 °F

Clear.


Feels Like: 108 °F
Forecast: 90 / 104 °F
Wind: 23 mph from Southwest

Location: International Airport

Current Time: May 25, 2015 at 8:10:36 AM

Latest Report: May 25, 2015 at 6:50 AM


Visibility: 5 mi

Pressure: 29.65 "Hg

Humidity: 42%

Dew point: 72 °F

Location of SeebLocation

Historic Weather in Seeb — Graph

°F

Seeb temperature yesterday

Maximum temperature yesterday: 113 °F (at 11:50 AM)
Minimum temperature yesterday: 99 °F (at 2:50 AM)
Average temperature yesterday: 103 °F

Past Weeks' High & Low Weather Summary

 TemperatureHumidityPressure
High113 °F (May 17, 10:50 AM)79% (May 12, 11:50 PM)29.80 "Hg (May 12, 11:50 PM)
Low82 °F (May 20, 4:50 AM)10% (May 14, 9:50 PM)29.53 "Hg (May 17, 4:50 PM)
Average97 °F32%29.69 "Hg
* Reported May 10 5:50 AM — May 25 5:50 AM, Seeb, Weather by CustomWeather, © 2015

Note: Actual official high and low records may vary slightly from our data, if they occured in-between our weather recording intervals... More about our weather records

Advertising

Seeb weather history for previous 24 hours

 ConditionsComfort  
Time TempWeatherWind HumidityBarometerVisibility
5:50 AM
Mon, May 25
97 °FClear.23 mph44%29.65 "Hg5 mi
4:50 AM97 °FClear.20 mph44%29.65 "Hg5 mi
3:50 AM99 °FClear.21 mph39%29.62 "HgN/A
2:50 AM100 °FClear.21 mph35%29.62 "Hg4 mi
1:50 AM102 °FClear.18 mph31%29.62 "Hg4 mi
12:50 AM100 °FExtremely hot.8 mph16%29.62 "HgN/A
11:50 PM
Sun, May 24
102 °FExtremely hot.5 mph14%29.65 "HgN/A
10:50 PM102 °FExtremely hot.1 mph15%29.65 "HgN/A
9:50 PM102 °FExtremely hot.2 mph14%29.65 "HgN/A
7:50 PM106 °FPassing clouds.7 mph15%29.62 "Hg5 mi
3:50 PMN/APassing clouds.12 mphN/AN/A6 mi
2:50 PM102 °FPassing clouds.16 mph37%29.62 "Hg6 mi
1:50 PM102 °FPassing clouds.16 mph42%29.62 "HgN/A
12:50 PM106 °FClear.9 mph32%29.65 "Hg6 mi
11:50 AM113 °FClear.12 mph19%29.65 "Hg6 mi
10:50 AM109 °FClear.20 mph27%29.68 "Hg6 mi
9:50 AM106 °FClear.21 mph30%29.68 "Hg5 mi
8:50 AM102 °FClear.23 mph35%29.68 "Hg4 mi
Weather by CustomWeather, © 2015

See weather overviewHow to use our weather pages